Regional Weather Roundup
Issued by NWS

Home | Current Version | Previous Version | Text Only | Print | Product List | Glossary Off
Versions: 1 2 3 4 5 6 7 8 9 10 11 12 13 14 15 16 17 18 19 20 21 22 23 24 25 26 27 28 29 30 31 32 33 34 35 36 37 38 39 40 41 42 43 44 45 46 47 48 49 50

000
ASUS43 KLOT 280708
RWRIL

ILLINOIS REGIONAL WEATHER ROUNDUP
NATIONAL WEATHER SERVICE CHICAGO/ROMEOVILLE IL
200 AM CDT FRI AUG 28 2015

NOTE: "FAIR" INDICATES FEW OR NO CLOUDS BELOW 12,000 FEET WITH NO
SIGNIFICANT WEATHER AND/OR OBSTRUCTIONS TO VISIBILITY.

* THESE STATIONS ARE NOT UNDER NWS QUALITY CONTROL. THEY ALSO MAY NOT
  REPORT WEATHER SUCH AS PRECIPITATION OR FOG.

ILZ001-002-007-009-015-016-024-280800-
NORTHWEST ILLINOIS

CITY           SKY/WX    TMP DP  RH WIND       PRES   REMARKS
MOLINE         MOCLDY    64  58  80 SE3       30.09R
STERLING*      CLOUDY    61  57  88 SE3       30.08F
SAVANNA*       CLOUDY    63  57  80 S6        30.10R
$$

ILZ003-004-008-010-011-017-018-280800-
NORTH CENTRAL ILLINOIS

CITY           SKY/WX    TMP DP  RH WIND       PRES   REMARKS
ROCKFORD       MOCLDY    58  54  86 S3        30.13S
FREEPORT*      CLOUDY    59  56  88 SE6       30.12F
ROCHELLE*      MOCLDY    56  54  95 CALM      30.12F FOG
DE KALB*       PTCLDY    59  56  90 SE7       30.13F
PERU*          PTCLDY    62  58  84 SE8       30.11F
$$

ILZ005-006-012>014-019>023-280800-
NORTHEAST ILLINOIS

CITY           SKY/WX    TMP DP  RH WIND       PRES   REMARKS
CHICAGO-OHARE  PTCLDY    59  56  89 SE3       30.12F
CHICAGO-MIDWAY PTCLDY    64  55  72 SE6       30.12F
AURORA         CLEAR     56  53  90 CALM      30.13F FOG
LANSING*       CLEAR     56  54  91 CALM      30.14S
JOLIET*        CLEAR     61  57  87 SE6       30.13F
WAUKEGAN       PTCLDY    54  53  97 CALM      30.12F FOG
DUPAGE AIRPORT CLEAR     55  52  89 CALM      30.12F
KANKAKEE*      CLEAR     57  55  95 CALM      30.14S
WHEELING       PTCLDY    57  53  86 CALM      30.14F
MORRIS*        CLEAR     55  54  94 CALM      30.12S FOG
ROMEOVILLE*    CLEAR     59  55  85 SE7       30.12F
NORTHERLY ISL    N/A     63  57  81 SE5         N/A
$$

LMZ740>746-280800-
SOUTHERN LAKE MICHIGAN

STATION/POSITION SKY/WX   TEMP    WIND        PRES    VSBY  WAVE
                          AIR SEA DIR/SP/G                  HT/PER
                          (F)     (DEG/KT/KT) (MB)    (MI)  (FT/S)
SOUTHERN BUOY              66 68  150/  8/ 10 1020.2F         1
WILMETTE HARBOR            61 60  340/  4/  6   N/A           1
HARRISON CRIB              66     150/ 11/ 14   N/A
BURNHAM HARBOR             62     160/  4/  6   N/A
CALUMET HARBOR             65     120/  5/  7   N/A
BURNS HARBOR               65     110/  9/ 13 1021.0S
MICHIGAN CITY              62     100/  6/  7   N/A
MICHIGAN CITY 6N           64 71  150/  8/ 10   N/A           1
ST. JOSEPH                 64 70  180/ 12/ 14   N/A           1
$$

ILZ025>027-034>036-040-047-049-050-058-095>099-280800-
WEST-CENTRAL ILLINOIS

CITY           SKY/WX    TMP DP  RH WIND       PRES   REMARKS
QUINCY         CLEAR     61  57  87 SE7       30.09S
GALESBURG*     PTCLDY    59  57  91 SE3       30.10R
MACOMB*        PTCLDY    54  54  99 CALM      30.12S
JACKSONVILLE*  CLEAR     60  58  92 CALM      30.10S
PITTSFIELD*    CLEAR     58  55  92 CALM      30.11S
$$

ILZ028>032-037-038-041>044-048-051>054-059>061-280800-
CENTRAL ILLINOIS

CITY           SKY/WX    TMP DP  RH WIND       PRES   REMARKS
PONTIAC        CLEAR     58  57  98 SE5       30.13F
BLOOMINGTON    CLEAR     59  57  92 SE9       30.13F
DECATUR        CLEAR     58  55  90 CALM      30.12S
PEORIA         MOCLDY    65  59  81 E6        30.10F
LACON*         PTCLDY    60  56  88 E6        30.09F
LINCOLN*       CLEAR     59  56  89 CALM      30.11F
SPRINGFIELD    CLEAR     59  57  93 CALM      30.11R
TAYLORVILLE    CLEAR     55  54  94 CALM      30.11S
$$

ILZ033-039-045-046-055>057-062-063-280800-
EAST-CENTRAL ILLINOIS

CITY           SKY/WX    TMP DP  RH WIND       PRES   REMARKS
CHAMPAIGN      CLEAR     61  58  90 E5        30.12F
RANTOUL*       CLEAR     63  58  85 CALM      30.13R
MATTOON        CLEAR     60  57  89 CALM      30.11F
PARIS*         MOCLDY    59  59  98 CALM      30.12F
$$

ILZ079-100>102-280800-
SOUTHWEST ILLINOIS

CITY           SKY/WX    TMP DP  RH WIND       PRES   REMARKS
ALTON          CLEAR     58  57  97 CALM      30.10S
BELLEVILLE     CLEAR     60  60 100 CALM      30.09S
CAHOKIA*       CLEAR     61  58  90 CALM      30.10S
SPARTA*        CLEAR     60  58  93 CALM      30.10F
$$

ILZ064>066-069>071-074>076-080>082-084>086-088>090-092>094-280800-
SOUTH-CENTRAL ILLINOIS

CITY           SKY/WX    TMP DP  RH WIND       PRES   REMARKS
CARBONDALE     FOG       58  57  97 CALM      30.09F VSB 1/2
CAIRO*         CLEAR     57  57 100 N3        30.08S
EFFINGHAM*     CLEAR     59  56  92 CALM      30.12F
MARION         FOG       59  59 100 CALM      30.10S VSB 1/4
MT. VERNON     CLEAR     57  52  82 NE3       30.11F
CENTRALIA*     CLEAR     56  56 100 CALM      30.10S
SALEM*         CLEAR     59  57  94 CALM      30.11S
METROPOLIS*    CLEAR     57  57 100 CALM      30.09S FOG
$$

ILZ067-068-072-073-078-083-087-091-280800-
SOUTHEAST ILLINOIS

CITY           SKY/WX    TMP DP  RH WIND       PRES   REMARKS
LAWRENCEVILLE  CLEAR     61  59  93 NE3       30.12R
FLORA*         CLEAR     57  56  96 CALM      30.11S
FAIRFIELD*     CLEAR     59  58  99 CALM      30.10S FOG
HARRISBURG*    CLEAR     58  58  98 CALM      30.11R
ROBINSON*      CLEAR     55  54  96 CALM      30.13S
CARMI*         CLEAR     57  57  98 CALM      30.10S
$$

ABBREVIATIONS USED IN REMARKS
   TC - TEMPERATURE IN CELSIUS
  WCI - WIND CHILL INDEX
   HX - HEAT INDEX
  VSB - VISIBILITY
$$



USA.gov is the U.S. government's official web portal to all federal, state and local government web resources and services.